| time (UTC) | temp C | wind direction | speed KPH | gust KPH | rain 1hr cm | rain 24hr cm | rain mn cm | humidity % | barometer mb |
| 20260903143711 | 26 | 198 | 12.9 | 19.3 | 0.00 | 0.00 | 0.00 | 52 | 1016.3 |
| 20260903143207 | 25 | 216 | 16.1 | 22.5 | 0.00 | 0.00 | 0.00 | 52 | 1016.3 |
| 20260903142702 | 25 | 200 | 12.9 | 16.1 | 0.00 | 0.00 | 0.00 | 53 | 1016.3 |
| 20260903142159 | 25 | 206 | 12.9 | 16.1 | 0.00 | 0.00 | 0.00 | 53 | 1016.3 |
| 20260903141654 | 25 | 208 | 9.7 | 19.3 | 0.00 | 0.00 | 0.00 | 53 | 1016.3 |
| 20260903141149 | 24 | 204 | 16.1 | 16.1 | 0.00 | 0.00 | 0.00 | 54 | 1016.6 |
| 20260903140644 | 24 | 212 | 12.9 | 14.5 | 0.00 | 0.00 | 0.00 | 56 | 1016.6 |
| 20260903140140 | 23 | 206 | 8.0 | 16.1 | 0.00 | 0.00 | 0.00 | 57 | 1016.6 |
| 20260903135635 | 23 | 198 | 11.3 | 12.9 | 0.00 | 0.00 | 0.00 | 57 | 1016.2 |
| 20260903135130 | 23 | 197 | 9.7 | 16.1 | 0.00 | 0.00 | 0.00 | 57 | 1016.3 |
| 20260903134628 | 23 | 191 | 14.5 | 16.1 | 0.00 | 0.00 | 0.00 | 57 | 1016.3 |
| 20260903134120 | 23 | 195 | 12.9 | 17.7 | 0.00 | 0.00 | 0.00 | 56 | 1016.5 |
| 20260903133617 | 23 | 189 | 8.0 | 17.7 | 0.00 | 0.00 | 0.00 | 57 | 1016.2 |
| 20260903133113 | 23 | 195 | 8.0 | 19.3 | 0.00 | 0.00 | 0.00 | 57 | 1016.2 |
| 20260903132608 | 22 | 182 | 9.7 | 16.1 | 0.00 | 0.00 | 0.00 | 58 | 1016.2 |
| 20260903132107 | 22 | 203 | 9.7 | 14.5 | 0.00 | 0.00 | 0.00 | 60 | 1016.3 |
| 20260903131602 | 22 | 188 | 9.7 | 12.9 | 0.00 | 0.00 | 0.00 | 60 | 1016.2 |
| 20260903131101 | 21 | 170 | 6.4 | 12.9 | 0.00 | 0.00 | 0.00 | 62 | 1016.1 |
| 20260903130556 | 21 | 178 | 9.7 | 11.3 | 0.00 | 0.00 | 0.00 | 64 | 1015.9 |
| 20260903130051 | 20 | 178 | 9.7 | 11.3 | 0.00 | 0.00 | 0.00 | 65 | 1016.1 |
| 20260903125549 | 20 | 185 | 6.4 | 12.9 | 0.00 | 0.00 | 0.00 | 66 | 1016.1 |
| 20260903125044 | 20 | 204 | 6.4 | 9.7 | 0.00 | 0.00 | 0.00 | 66 | 1016.0 |
| 20260903124539 | 20 | 198 | 6.4 | 9.7 | 0.00 | 0.00 | 0.00 | 66 | 1015.7 |
| 20260903124038 | 20 | 208 | 9.7 | 9.7 | 0.00 | 0.00 | 0.00 | 66 | 1015.7 |
| 20260903123538 | 20 | 207 | 9.7 | 11.3 | 0.00 | 0.00 | 0.00 | 66 | 1015.9 |
| 20260903123037 | 20 | 210 | 8.0 | 12.9 | 0.00 | 0.00 | 0.00 | 66 | 1015.7 |
| 20260903122531 | 20 | 201 | 9.7 | 12.9 | 0.00 | 0.00 | 0.00 | 65 | 1015.8 |
| 20260903122031 | 20 | 204 | 9.7 | 12.9 | 0.00 | 0.00 | 0.00 | 65 | 1015.6 |
| 20260903121526 | 20 | 204 | 6.4 | 14.5 | 0.00 | 0.00 | 0.00 | 64 | 1015.7 |
| 20260903121022 | 20 | 200 | 9.7 | 12.9 | 0.00 | 0.00 | 0.00 | 65 | 1015.5 |
| 20260903120520 | 20 | 190 | 8.0 | 12.9 | 0.00 | 0.00 | 0.00 | 64 | 1015.5 |
| 20260903120015 | 20 | 182 | 12.9 | 14.5 | 0.00 | 0.00 | 0.00 | 63 | 1015.5 |
| 20260903115513 | 21 | 194 | 11.3 | 16.1 | 0.00 | 0.00 | 0.00 | 61 | 1015.3 |
| 20260903115008 | 21 | 198 | 16.1 | 17.7 | 0.00 | 0.00 | 0.00 | 60 | 1015.6 |
| 20260903114504 | 21 | 196 | 9.7 | 16.1 | 0.00 | 0.00 | 0.00 | 61 | 1015.6 |
| 20260903113959 | 20 | 202 | 9.7 | 11.3 | 0.00 | 0.00 | 0.00 | 62 | 1015.7 |
| 20260903113455 | 20 | 180 | 8.0 | 11.3 | 0.00 | 0.00 | 0.00 | 63 | 1015.5 |
| 20260903112950 | 20 | 170 | 9.7 | 9.7 | 0.00 | 0.00 | 0.00 | 61 | 1015.5 |
| 20260903112446 | 20 | 184 | 8.0 | 16.1 | 0.00 | 0.00 | 0.00 | 61 | 1015.6 |
| 20260903111945 | 20 | 178 | 9.7 | 9.7 | 0.00 | 0.00 | 0.00 | 64 | 1015.6 |
| 20260903111444 | 20 | 157 | 6.4 | 8.0 | 0.00 | 0.00 | 0.00 | 64 | 1015.5 |
| 20260903110941 | 20 | 161 | 6.4 | 9.7 | 0.00 | 0.00 | 0.00 | 63 | 1015.5 |
| 20260903110437 | 20 | 187 | 6.4 | 9.7 | 0.00 | 0.00 | 0.00 | 62 | 1015.3 |
| 20260903105932 | 20 | 171 | 9.7 | 16.1 | 0.00 | 0.00 | 0.00 | 60 | 1015.1 |
| 20260903105427 | 20 | 169 | 11.3 | 14.5 | 0.00 | 0.00 | 0.00 | 61 | 1015.2 |
| 20260903104926 | 20 | 183 | 9.7 | 14.5 | 0.00 | 0.00 | 0.00 | 62 | 1015.2 |
| 20260903104425 | 20 | 187 | 6.4 | 11.3 | 0.00 | 0.00 | 0.00 | 62 | 1015.5 |
| 20260903103922 | 20 | 169 | 9.7 | 12.9 | 0.00 | 0.00 | 0.00 | 62 | 1015.6 |
| 20260903103418 | 20 | 186 | 8.0 | 12.9 | 0.00 | 0.00 | 0.00 | 62 | 1015.7 |
| 20260903102913 | 20 | 185 | 12.9 | 12.9 | 0.00 | 0.00 | 0.00 | 61 | 1015.7 |
| 20260903102408 | 20 | 185 | 8.0 | 11.3 | 0.00 | 0.00 | 0.00 | 61 | 1015.7 |
| 20260903101908 | 20 | 189 | 8.0 | 11.3 | 0.00 | 0.00 | 0.00 | 62 | 1015.8 |
| 20260903101402 | 20 | 185 | 6.4 | 9.7 | 0.00 | 0.00 | 0.00 | 62 | 1015.7 |
| 20260903100858 | 20 | 190 | 6.4 | 9.7 | 0.00 | 0.00 | 0.00 | 63 | 1015.8 |
| 20260903100354 | 20 | 190 | 9.7 | 9.7 | 0.00 | 0.00 | 0.00 | 62 | 1015.8 |
| 20260903095850 | 20 | 175 | 8.0 | 14.5 | 0.00 | 0.00 | 0.00 | 62 | 1015.7 |
| 20260903095350 | 20 | 180 | 9.7 | 14.5 | 0.00 | 0.00 | 0.00 | 61 | 1015.9 |
| 20260903094845 | 20 | 161 | 9.7 | 11.3 | 0.00 | 0.00 | 0.00 | 63 | 1015.6 |
| 20260903094340 | 20 | 187 | 6.4 | 8.0 | 0.00 | 0.00 | 0.00 | 64 | 1015.8 |
| 20260903093836 | 20 | 196 | 4.8 | 6.4 | 0.00 | 0.00 | 0.00 | 65 | 1015.9 |
| 20260903093331 | 20 | 171 | 6.4 | 8.0 | 0.00 | 0.00 | 0.00 | 65 | 1016.0 |
| 20260903092826 | 20 | 163 | 4.8 | 6.4 | 0.00 | 0.00 | 0.00 | 66 | 1016.0 |
| 20260903092321 | 20 | 163 | 6.4 | 8.0 | 0.00 | 0.00 | 0.00 | 66 | 1015.9 |
| 20260903091819 | 20 | 169 | 8.0 | 9.7 | 0.00 | 0.00 | 0.00 | 64 | 1015.8 |
| 20260903091313 | 20 | 175 | 4.8 | 8.0 | 0.00 | 0.00 | 0.00 | 63 | 1016.1 |
| 20260903090809 | 20 | 182 | 6.4 | 9.7 | 0.00 | 0.00 | 0.00 | 62 | 1015.7 |
| 20260903090309 | 21 | 189 | 8.0 | 12.9 | 0.00 | 0.00 | 0.00 | 61 | 1015.9 |
| 20260903085807 | 21 | 189 | 9.7 | 11.3 | 0.00 | 0.00 | 0.00 | 60 | 1015.9 |
| 20260903085305 | 21 | 192 | 4.8 | 9.7 | 0.00 | 0.00 | 0.00 | 59 | 1015.8 |
| 20260903084800 | 21 | 206 | 8.0 | 9.7 | 0.00 | 0.00 | 0.00 | 58 | 1016.0 |
| 20260903084254 | 22 | 185 | 6.4 | 9.7 | 0.00 | 0.00 | 0.00 | 57 | 1016.0 |
| 20260903083750 | 22 | 181 | 8.0 | 12.9 | 0.00 | 0.00 | 0.00 | 56 | 1016.0 |
| 20260903083250 | 22 | 160 | 11.3 | 17.7 | 0.00 | 0.00 | 0.00 | 55 | 1016.0 |
| 20260903082749 | 23 | 171 | 14.5 | 19.3 | 0.00 | 0.00 | 0.00 | 54 | 1015.9 |
| 20260903082240 | 23 | 163 | 14.5 | 19.3 | 0.00 | 0.00 | 0.00 | 54 | 1015.8 |
| 20260903081739 | 23 | 163 | 16.1 | 22.5 | 0.00 | 0.00 | 0.00 | 53 | 1015.8 |
| 20260903081230 | 23 | 171 | 16.1 | 24.1 | 0.00 | 0.00 | 0.00 | 52 | 1015.7 |
| 20260903080725 | 23 | 169 | 17.7 | 25.7 | 0.00 | 0.00 | 0.00 | 51 | 1015.9 |
| 20260903080223 | 24 | 180 | 17.7 | 24.1 | 0.00 | 0.00 | 0.00 | 51 | 1015.7 |
| 20260903075722 | 24 | 180 | 20.9 | 27.4 | 0.00 | 0.00 | 0.00 | 51 | 1015.8 |
| 20260903075212 | 24 | 185 | 12.9 | 25.7 | 0.00 | 0.00 | 0.00 | 50 | 1015.8 |
| 20260903074710 | 24 | 170 | 24.1 | 27.4 | 0.00 | 0.00 | 0.00 | 51 | 1015.9 |
| 20260903074207 | 23 | 162 | 12.9 | 24.1 | 0.00 | 0.00 | 0.00 | 51 | 1015.8 |
| 20260903073701 | 23 | 168 | 16.1 | 24.1 | 0.00 | 0.00 | 0.00 | 51 | 1015.7 |
| 20260903073156 | 23 | 172 | 17.7 | 19.3 | 0.00 | 0.00 | 0.00 | 52 | 1015.8 |
| 20260903072652 | 23 | 167 | 16.1 | 19.3 | 0.00 | 0.00 | 0.00 | 52 | 1015.9 |
| 20260903072149 | 23 | 153 | 12.9 | 19.3 | 0.00 | 0.00 | 0.00 | 51 | 1016.0 |
| 20260903071644 | 23 | 170 | 16.1 | 19.3 | 0.00 | 0.00 | 0.00 | 52 | 1015.7 |
| 20260903071139 | 23 | 154 | 12.9 | 20.9 | 0.00 | 0.00 | 0.00 | 53 | 1015.9 |
| 20260903070634 | 23 | 163 | 12.9 | 19.3 | 0.00 | 0.00 | 0.00 | 53 | 1015.9 |
| 20260903070130 | 23 | 155 | 14.5 | 19.3 | 0.00 | 0.00 | 0.00 | 53 | 1016.0 |
| 20260903065629 | 23 | 165 | 14.5 | 19.3 | 0.00 | 0.00 | 0.00 | 52 | 1015.9 |
| 20260903065124 | 23 | 160 | 14.5 | 19.3 | 0.00 | 0.00 | 0.00 | 52 | 1015.8 |
| 20260903064624 | 24 | 149 | 16.1 | 17.7 | 0.00 | 0.00 | 0.00 | 51 | 1016.0 |
| 20260903064119 | 23 | 168 | 12.9 | 20.9 | 0.00 | 0.00 | 0.00 | 52 | 1016.0 |
| 20260903063615 | 23 | 157 | 14.5 | 20.9 | 0.00 | 0.00 | 0.00 | 52 | 1016.0 |
| 20260903063110 | 24 | 156 | 14.5 | 20.9 | 0.00 | 0.00 | 0.00 | 52 | 1016.0 |
| 20260903062605 | 23 | 154 | 9.7 | 20.9 | 0.00 | 0.00 | 0.00 | 53 | 1015.9 |
| 20260903062101 | 23 | 150 | 19.3 | 19.3 | 0.00 | 0.00 | 0.00 | 54 | 1016.0 |
| 20260903061556 | 23 | 166 | 12.9 | 14.5 | 0.00 | 0.00 | 0.00 | 56 | 1016.0 |
| 20260903061055 | 23 | 170 | 9.7 | 16.1 | 0.00 | 0.00 | 0.00 | 56 | 1015.9 |
| 20260903060555 | 23 | 166 | 14.5 | 14.5 | 0.00 | 0.00 | 0.00 | 56 | 1016.1 |
| 20260903060050 | 22 | 173 | 9.7 | 14.5 | 0.00 | 0.00 | 0.00 | 58 | 1015.9 |
| 20260903055547 | 22 | 163 | 9.7 | 11.3 | 0.00 | 0.00 | 0.00 | 60 | 1015.9 |
| 20260903055047 | 22 | 160 | 8.0 | 11.3 | 0.00 | 0.00 | 0.00 | 60 | 1015.9 |
| 20260903054542 | 22 | 164 | 9.7 | 12.9 | 0.00 | 0.00 | 0.00 | 59 | 1016.0 |
| 20260903054037 | 23 | 158 | 9.7 | 14.5 | 0.00 | 0.00 | 0.00 | 58 | 1015.8 |
| 20260903053532 | 22 | 159 | 11.3 | 14.5 | 0.00 | 0.00 | 0.00 | 59 | 1015.9 |
| 20260903053029 | 22 | 160 | 9.7 | 12.9 | 0.00 | 0.00 | 0.00 | 60 | 1016.1 |
| 20260903052524 | 22 | 158 | 9.7 | 11.3 | 0.00 | 0.00 | 0.00 | 60 | 1016.0 |
| 20260903052019 | 23 | 172 | 8.0 | 9.7 | 0.00 | 0.00 | 0.00 | 58 | 1015.8 |
| 20260903051514 | 23 | 165 | 12.9 | 12.9 | 0.00 | 0.00 | 0.00 | 57 | 1015.9 |
| 20260903051010 | 23 | 160 | 8.0 | 12.9 | 0.00 | 0.00 | 0.00 | 55 | 1015.9 |
| 20260903050509 | 25 | 163 | 9.7 | 14.5 | 0.00 | 0.00 | 0.00 | 52 | 1016.0 |
| 20260903050004 | 25 | 160 | 16.1 | 17.7 | 0.00 | 0.05 | 0.05 | 51 | 1016.0 |
| 20260903045459 | 26 | 155 | 17.7 | 19.3 | 0.00 | 0.05 | 0.05 | 48 | 1016.0 |
| 20260903044955 | 26 | 161 | 17.7 | 22.5 | 0.00 | 0.05 | 0.05 | 48 | 1015.8 |
| 20260903044451 | 26 | 148 | 17.7 | 22.5 | 0.00 | 0.05 | 0.05 | 49 | 1015.8 |
| 20260903043947 | 25 | 152 | 12.9 | 17.7 | 0.00 | 0.05 | 0.05 | 52 | 1015.8 |
| 20260903043442 | 25 | 145 | 11.3 | 16.1 | 0.00 | 0.05 | 0.05 | 54 | 1015.7 |
| 20260903042940 | 25 | 155 | 8.0 | 17.7 | 0.00 | 0.05 | 0.05 | 55 | 1015.8 |
| 20260903042436 | 25 | 136 | 8.0 | 16.1 | 0.00 | 0.05 | 0.05 | 55 | 1015.7 |
| 20260903041932 | 25 | 138 | 12.9 | 19.3 | 0.00 | 0.05 | 0.05 | 55 | 1015.8 |
| 20260903041428 | 25 | 142 | 11.3 | 20.9 | 0.00 | 0.05 | 0.05 | 56 | 1015.5 |
| 20260903040924 | 25 | 144 | 9.7 | 17.7 | 0.00 | 0.05 | 0.05 | 57 | 1015.7 |
| 20260903040423 | 25 | 134 | 9.7 | 17.7 | 0.00 | 0.05 | 0.05 | 57 | 1015.7 |
| 20260903035919 | 25 | 143 | 6.4 | 12.9 | 0.00 | 0.05 | 0.05 | 57 | 1016.0 |
| 20260903035415 | 25 | 155 | 9.7 | 14.5 | 0.00 | 0.05 | 0.05 | 56 | 1015.9 |
| 20260903034914 | 25 | 143 | 9.7 | 17.7 | 0.00 | 0.05 | 0.05 | 56 | 1016.0 |
| 20260903034409 | 25 | 136 | 12.9 | 14.5 | 0.00 | 0.05 | 0.05 | 56 | 1015.8 |
| 20260903033905 | 25 | 135 | 9.7 | 16.1 | 0.00 | 0.05 | 0.05 | 57 | 1015.8 |
| 20260903033400 | 25 | 140 | 9.7 | 16.1 | 0.00 | 0.05 | 0.05 | 57 | 1015.8 |
| 20260903032854 | 26 | 148 | 14.5 | 16.1 | 0.00 | 0.05 | 0.05 | 55 | 1015.7 |
| 20260903032350 | 26 | 156 | 11.3 | 16.1 | 0.00 | 0.05 | 0.05 | 54 | 1016.0 |
| 20260903031845 | 26 | 142 | 9.7 | 14.5 | 0.00 | 0.05 | 0.05 | 55 | 1015.8 |
| 20260903031344 | 26 | 145 | 9.7 | 16.1 | 0.00 | 0.05 | 0.05 | 55 | 1015.7 |
| 20260903030840 | 26 | 140 | 8.0 | 16.1 | 0.00 | 0.05 | 0.05 | 55 | 1015.9 |
| 20260903030335 | 26 | 141 | 9.7 | 16.1 | 0.00 | 0.05 | 0.05 | 54 | 1015.8 |
| 20260903025826 | 26 | 145 | 6.4 | 14.5 | 0.00 | 0.05 | 0.05 | 54 | 1015.5 |
| 20260903025321 | 25 | 137 | 9.7 | 12.9 | 0.00 | 0.05 | 0.05 | 54 | 1015.3 |
| 20260903024821 | 26 | 141 | 11.3 | 16.1 | 0.00 | 0.05 | 0.05 | 54 | 1015.5 |
| 20260903024320 | 26 | 134 | 9.7 | 16.1 | 0.00 | 0.05 | 0.05 | 53 | 1015.5 |
| 20260903023816 | 26 | 139 | 14.5 | 14.5 | 0.00 | 0.05 | 0.05 | 53 | 1015.3 |
| 20260903023312 | 25 | 141 | 11.3 | 12.9 | 0.00 | 0.05 | 0.05 | 55 | 1015.3 |
| 20260903022806 | 25 | 132 | 6.4 | 14.5 | 0.00 | 0.05 | 0.05 | 55 | 1015.2 |
| 20260903022306 | 25 | 135 | 4.8 | 8.0 | 0.00 | 0.05 | 0.05 | 56 | 1015.6 |
| 20260903021759 | 25 | 105 | 4.8 | 9.7 | 0.00 | 0.05 | 0.05 | 55 | 1015.6 |
| 20260903021254 | 26 | 142 | 8.0 | 9.7 | 0.00 | 0.05 | 0.05 | 53 | 1015.5 |
| 20260903020749 | 26 | 138 | 8.0 | 12.9 | 0.00 | 0.05 | 0.05 | 51 | 1015.6 |
| 20260903020243 | 26 | 129 | 9.7 | 11.3 | 0.00 | 0.05 | 0.05 | 51 | 1015.5 |
| 20260903015739 | 26 | 126 | 8.0 | 12.9 | 0.00 | 0.05 | 0.05 | 51 | 1015.2 |
| 20260903015234 | 26 | 137 | 4.8 | 9.7 | 0.00 | 0.05 | 0.05 | 52 | 1015.5 |
| 20260903014729 | 26 | 142 | 6.4 | 9.7 | 0.00 | 0.05 | 0.05 | 51 | 1015.5 |
| 20260903014229 | 26 | 133 | 6.4 | 12.9 | 0.00 | 0.05 | 0.05 | 52 | 1015.5 |
| 20260903013724 | 26 | 132 | 8.0 | 9.7 | 0.00 | 0.05 | 0.05 | 53 | 1015.3 |
| 20260903013223 | 26 | 138 | 6.4 | 9.7 | 0.00 | 0.05 | 0.05 | 53 | 1015.3 |
| 20260903012721 | 27 | 148 | 9.7 | 9.7 | 0.00 | 0.05 | 0.05 | 52 | 1015.2 |
| 20260903012215 | 27 | 97 | 3.2 | 8.0 | 0.00 | 0.05 | 0.05 | 50 | 1015.5 |
| 20260903011710 | 27 | 126 | 4.8 | 8.0 | 0.00 | 0.05 | 0.05 | 50 | 1015.7 |
| 20260903011204 | 27 | 109 | 3.2 | 9.7 | 0.00 | 0.05 | 0.05 | 49 | 1015.3 |
| 20260903010659 | 27 | 110 | 3.2 | 9.7 | 0.00 | 0.05 | 0.05 | 49 | 1015.3 |
| 20260903010159 | 27 | 123 | 4.8 | 12.9 | 0.00 | 0.05 | 0.05 | 49 | 1015.2 |
| 20260903005653 | 27 | 122 | 6.4 | 9.7 | 0.00 | 0.05 | 0.05 | 49 | 1015.5 |
| 20260903005148 | 27 | 108 | 4.8 | 8.0 | 0.00 | 0.05 | 0.05 | 49 | 1015.3 |
| 20260903004644 | 27 | 141 | 8.0 | 16.1 | 0.00 | 0.05 | 0.05 | 48 | 1015.5 |
| 20260903004138 | 28 | 136 | 4.8 | 17.7 | 0.00 | 0.05 | 0.05 | 47 | 1015.2 |
| 20260903003633 | 28 | 128 | 12.9 | 16.1 | 0.00 | 0.05 | 0.05 | 47 | 1015.6 |
| 20260903003123 | 28 | 115 | 4.8 | 11.3 | 0.00 | 0.05 | 0.05 | 48 | 1015.6 |
| 20260903002618 | 28 | 133 | 6.4 | 16.1 | 0.00 | 0.05 | 0.05 | 47 | 1015.5 |
| 20260903002112 | 28 | 134 | 14.5 | 19.3 | 0.00 | 0.05 | 0.05 | 47 | 1015.8 |
| 20260903001607 | 28 | 134 | 14.5 | 17.7 | 0.00 | 0.05 | 0.05 | 47 | 1015.5 |
| 20260903001101 | 28 | 141 | 12.9 | 20.9 | 0.00 | 0.05 | 0.05 | 48 | 1015.6 |
| 20260903000557 | 28 | 138 | 12.9 | 24.1 | 0.00 | 0.05 | 0.05 | 47 | 1015.7 |
| 20260903000056 | 28 | 145 | 20.9 | 29.0 | 0.00 | 0.05 | 0.05 | 47 | 1015.7 |
| 20260902235555 | 28 | 141 | 12.9 | 24.1 | 0.00 | 0.05 | 0.05 | 50 | 1015.7 |
| 20260902235050 | 29 | 152 | 11.3 | 24.1 | 0.00 | 0.05 | 0.05 | 48 | 1015.8 |
| 20260902234545 | 30 | 156 | 11.3 | 25.7 | 0.00 | 0.05 | 0.05 | 46 | 1015.9 |
| 20260902234043 | 30 | 138 | 16.1 | 29.0 | 0.00 | 0.05 | 0.05 | 45 | 1015.8 |
| 20260902233538 | 31 | 150 | 14.5 | 32.2 | 0.00 | 0.05 | 0.05 | 43 | 1015.7 |
| 20260902233033 | 30 | 145 | 16.1 | 24.1 | 0.00 | 0.05 | 0.05 | 46 | 1015.9 |
| 20260902232532 | 30 | 152 | 12.9 | 22.5 | 0.00 | 0.05 | 0.05 | 46 | 1015.9 |
| 20260902232026 | 30 | 155 | 12.9 | 16.1 | 0.00 | 0.05 | 0.05 | 48 | 1015.9 |
| 20260902231521 | 30 | 138 | 16.1 | 24.1 | 0.00 | 0.05 | 0.05 | 48 | 1015.9 |
| 20260902231020 | 30 | 159 | 16.1 | 22.5 | 0.00 | 0.05 | 0.05 | 47 | 1015.8 |
| 20260902230515 | 30 | 145 | 14.5 | 27.4 | 0.00 | 0.05 | 0.05 | 47 | 1015.8 |
| 20260902230014 | 30 | 164 | 19.3 | 25.7 | 0.00 | 0.05 | 0.05 | 46 | 1015.9 |
| 20260902225510 | 30 | 162 | 17.7 | 20.9 | 0.00 | 0.05 | 0.05 | 47 | 1015.9 |
| 20260902225004 | 30 | 157 | 11.3 | 20.9 | 0.00 | 0.05 | 0.05 | 46 | 1015.7 |
| 20260902224502 | 30 | 159 | 6.4 | 20.9 | 0.00 | 0.05 | 0.05 | 46 | 1015.8 |
| 20260902223954 | 31 | 157 | 16.1 | 20.9 | 0.00 | 0.05 | 0.05 | 44 | 1015.8 |
| 20260902223449 | 30 | 155 | 19.3 | 20.9 | 0.00 | 0.05 | 0.05 | 47 | 1015.9 |
| 20260902222948 | 31 | 141 | 11.3 | 22.5 | 0.00 | 0.05 | 0.05 | 47 | 1016.1 |
| 20260902222446 | 31 | 178 | 20.9 | 22.5 | 0.00 | 0.05 | 0.05 | 44 | 1016.0 |
| 20260902221941 | 31 | 162 | 11.3 | 17.7 | 0.00 | 0.05 | 0.05 | 47 | 1015.9 |
| 20260902221439 | 31 | 153 | 11.3 | 17.7 | 0.00 | 0.05 | 0.05 | 47 | 1016.0 |
| 20260902220935 | 31 | 139 | 11.3 | 17.7 | 0.00 | 0.05 | 0.05 | 48 | 1015.8 |
| 20260902220430 | 30 | 160 | 9.7 | 20.9 | 0.00 | 0.05 | 0.05 | 49 | 1016.1 |
| 20260902215925 | 30 | 150 | 14.5 | 25.7 | 0.05 | 0.05 | 0.05 | 48 | 1016.1 |
| 20260902215420 | 30 | 146 | 8.0 | 9.7 | 0.05 | 0.05 | 0.05 | 45 | 1016.2 |
| 20260902214916 | 30 | 134 | 14.5 | 19.3 | 0.00 | 0.03 | 0.03 | 43 | 1016.2 |
| 20260902214414 | 29 | 131 | 9.7 | 12.9 | 0.00 | 0.03 | 0.03 | 44 | 1016.0 |
| 20260902213909 | 28 | 163 | 17.7 | 24.1 | 0.00 | 0.03 | 0.03 | 49 | 1016.0 |
| 20260902213406 | 25 | 158 | 24.1 | 37.0 | 0.05 | 0.03 | 0.03 | 56 | 1016.1 |
| 20260902212904 | 23 | 175 | 22.5 | 37.0 | 0.18 | 0.03 | 0.03 | 67 | 1016.1 |
| 20260902212400 | 25 | 199 | 24.1 | 40.2 | 0.13 | 0.03 | 0.03 | 65 | 1016.7 |
| 20260902211856 | 27 | 215 | 41.8 | 46.7 | 0.00 | 0.00 | 0.00 | 48 | 1016.2 |
| 20260902211352 | 27 | 211 | 37.0 | 45.1 | 0.00 | 0.00 | 0.00 | 50 | 1016.1 |
| 20260902210841 | 28 | 208 | 27.4 | 40.2 | 0.00 | 0.00 | 0.00 | 61 | 1016.0 |
| 20260902210341 | 28 | 228 | 24.1 | 33.8 | 0.00 | 0.00 | 0.00 | 47 | 1016.0 |
| 20260902205839 | 30 | 226 | 17.7 | 37.0 | 0.00 | 0.00 | 0.00 | 42 | 1016.1 |
| 20260902205334 | 31 | 218 | 19.3 | 40.2 | 0.00 | 0.00 | 0.00 | 40 | 1016.0 |
| 20260902204830 | 33 | 207 | 17.7 | 30.6 | 0.00 | 0.00 | 0.00 | 35 | 1015.9 |
| 20260902204324 | 33 | 192 | 8.0 | 16.1 | 0.00 | 0.00 | 0.00 | 34 | 1016.1 |
| 20260902203820 | 33 | 180 | 17.7 | 22.5 | 0.00 | 0.00 | 0.00 | 34 | 1016.0 |
| 20260902203315 | 34 | 177 | 24.1 | 27.4 | 0.00 | 0.00 | 0.00 | 33 | 1016.1 |
| 20260902202814 | 35 | 199 | 22.5 | 27.4 | 0.00 | 0.00 | 0.00 | 33 | 1016.0 |
| 20260902202311 | 35 | 205 | 14.5 | 27.4 | 0.00 | 0.00 | 0.00 | 32 | 1016.3 |
| 20260902201807 | 34 | 209 | 24.1 | 30.6 | 0.00 | 0.00 | 0.00 | 33 | 1016.2 |
| 20260902201306 | 35 | 217 | 22.5 | 25.7 | 0.00 | 0.00 | 0.00 | 32 | 1016.5 |
| 20260902200802 | 34 | 205 | 12.9 | 20.9 | 0.00 | 0.00 | 0.00 | 33 | 1016.7 |
| 20260902200257 | 35 | 217 | 29.0 | 37.0 | 0.00 | 0.00 | 0.00 | 33 | 1016.5 |
| 20260902195752 | 35 | 162 | 17.7 | 27.4 | 0.00 | 0.00 | 0.00 | 32 | 1016.8 |
| 20260902195251 | 34 | 209 | 17.7 | 29.0 | 0.00 | 0.00 | 0.00 | 34 | 1017.1 |
| 20260902194746 | 33 | 204 | 12.9 | 22.5 | 0.00 | 0.00 | 0.00 | 34 | 1017.1 |
| 20260902194241 | 33 | 197 | 17.7 | 29.0 | 0.00 | 0.00 | 0.00 | 34 | 1017.0 |
| 20260902193737 | 34 | 219 | 30.6 | 33.8 | 0.00 | 0.00 | 0.00 | 34 | 1017.2 |
| 20260902193232 | 34 | 210 | 17.7 | 22.5 | 0.00 | 0.00 | 0.00 | 34 | 1017.1 |
| 20260902192731 | 33 | 227 | 9.7 | 24.1 | 0.00 | 0.00 | 0.00 | 34 | 1017.3 |
| 20260902192230 | 35 | 209 | 12.9 | 22.5 | 0.00 | 0.00 | 0.00 | 33 | 1017.2 |
| 20260902191725 | 35 | 210 | 22.5 | 30.6 | 0.00 | 0.00 | 0.00 | 32 | 1017.3 |
| 20260902191219 | 34 | 215 | 25.7 | 41.8 | 0.00 | 0.00 | 0.00 | 34 | 1017.5 |
| 20260902190714 | 33 | 245 | 6.4 | 27.4 | 0.00 | 0.00 | 0.00 | 36 | 1017.6 |
| 20260902190209 | 35 | 188 | 19.3 | 25.7 | 0.00 | 0.00 | 0.00 | 34 | 1017.8 |
| 20260902185705 | 34 | 206 | 20.9 | 29.0 | 0.00 | 0.00 | 0.00 | 33 | 1017.9 |
| 20260902185202 | 34 | 206 | 16.1 | 27.4 | 0.00 | 0.00 | 0.00 | 35 | 1017.7 |
| 20260902184656 | 34 | 209 | 20.9 | 29.0 | 0.00 | 0.00 | 0.00 | 35 | 1017.8 |
| 20260902184151 | 34 | 174 | 14.5 | 29.0 | 0.00 | 0.00 | 0.00 | 35 | 1018.1 |
| 20260902183647 | 35 | 187 | 24.1 | 32.2 | 0.00 | 0.00 | 0.00 | 35 | 1018.1 |
| 20260902183143 | 33 | 200 | 19.3 | 20.9 | 0.00 | 0.00 | 0.00 | 35 | 1018.4 |
| 20260902182639 | 33 | 237 | 12.9 | 30.6 | 0.00 | 0.00 | 0.00 | 36 | 1018.6 |
| 20260902182135 | 33 | 211 | 17.7 | 29.0 | 0.00 | 0.00 | 0.00 | 36 | 1018.7 |
| 20260902181631 | 33 | 202 | 14.5 | 32.2 | 0.00 | 0.00 | 0.00 | 36 | 1018.5 |
| 20260902181131 | 34 | 172 | 16.1 | 30.6 | 0.00 | 0.00 | 0.00 | 36 | 1018.7 |
| 20260902180630 | 33 | 211 | 16.1 | 20.9 | 0.00 | 0.00 | 0.00 | 37 | 1018.8 |
| 20260902180126 | 32 | 191 | 20.9 | 27.4 | 0.00 | 0.00 | 0.00 | 38 | 1019.0 |
| 20260902175626 | 32 | 203 | 16.1 | 25.7 | 0.00 | 0.00 | 0.00 | 37 | 1018.9 |
| 20260902175122 | 32 | 203 | 19.3 | 40.2 | 0.00 | 0.00 | 0.00 | 37 | 1018.9 |
| 20260902174618 | 32 | 198 | 22.5 | 25.7 | 0.00 | 0.00 | 0.00 | 38 | 1018.9 |
| 20260902174114 | 33 | 185 | 27.4 | 33.8 | 0.00 | 0.00 | 0.00 | 36 | 1018.9 |
| 20260902173608 | 34 | 208 | 22.5 | 32.2 | 0.00 | 0.00 | 0.00 | 36 | 1018.9 |
| 20260902173103 | 33 | 181 | 22.5 | 32.2 | 0.00 | 0.00 | 0.00 | 36 | 1019.1 |
| 20260902172557 | 33 | 202 | 33.8 | 35.4 | 0.00 | 0.00 | 0.00 | 37 | 1019.1 |
| 20260902172051 | 33 | 211 | 24.1 | 25.7 | 0.00 | 0.00 | 0.00 | 38 | 1019.2 |
| 20260902171547 | 33 | 193 | 17.7 | 32.2 | 0.00 | 0.00 | 0.00 | 38 | 1019.2 |
| 20260902171043 | 33 | 212 | 20.9 | 27.4 | 0.00 | 0.00 | 0.00 | 37 | 1019.4 |
| 20260902170537 | 32 | 214 | 24.1 | 32.2 | 0.00 | 0.00 | 0.00 | 39 | 1019.4 |
| 20260902170033 | 31 | 202 | 19.3 | 27.4 | 0.00 | 0.00 | 0.00 | 40 | 1019.4 |
| 20260902165527 | 32 | 218 | 17.7 | 32.2 | 0.00 | 0.00 | 0.00 | 40 | 1019.5 |
| 20260902165021 | 31 | 206 | 24.1 | 32.2 | 0.00 | 0.00 | 0.00 | 40 | 1019.5 |
| 20260902164516 | 32 | 194 | 16.1 | 25.7 | 0.00 | 0.00 | 0.00 | 39 | 1019.5 |
| 20260902164015 | 32 | 211 | 16.1 | 27.4 | 0.00 | 0.00 | 0.00 | 40 | 1019.6 |
| 20260902163511 | 31 | 214 | 19.3 | 29.0 | 0.00 | 0.00 | 0.00 | 42 | 1019.6 |
| 20260902163009 | 31 | 209 | 20.9 | 27.4 | 0.00 | 0.00 | 0.00 | 42 | 1019.6 |
| 20260902162504 | 30 | 208 | 14.5 | 27.4 | 0.00 | 0.00 | 0.00 | 43 | 1019.7 |
| 20260902161959 | 30 | 211 | 22.5 | 29.0 | 0.00 | 0.00 | 0.00 | 43 | 1019.5 |
| 20260902161454 | 30 | 210 | 19.3 | 27.4 | 0.00 | 0.00 | 0.00 | 44 | 1019.6 |
| 20260902160950 | 30 | 231 | 14.5 | 29.0 | 0.00 | 0.00 | 0.00 | 44 | 1019.5 |
| 20260902160445 | 30 | 217 | 19.3 | 32.2 | 0.00 | 0.00 | 0.00 | 45 | 1019.4 |
| 20260902155943 | 30 | 209 | 24.1 | 30.6 | 0.00 | 0.00 | 0.00 | 43 | 1019.5 |
| 20260902155439 | 30 | 214 | 20.9 | 27.4 | 0.00 | 0.00 | 0.00 | 44 | 1019.6 |
| 20260902154932 | 29 | 219 | 20.9 | 32.2 | 0.00 | 0.00 | 0.00 | 45 | 1019.6 |
| 20260902154428 | 30 | 200 | 20.9 | 27.4 | 0.00 | 0.00 | 0.00 | 45 | 1019.5 |
| 20260902153928 | 28 | 212 | 24.1 | 37.0 | 0.00 | 0.00 | 0.00 | 45 | 1019.4 |
| 20260902153426 | 29 | 208 | 19.3 | 37.0 | 0.00 | 0.00 | 0.00 | 45 | 1019.4 |
| 20260902152922 | 28 | 215 | 17.7 | 27.4 | 0.00 | 0.00 | 0.00 | 45 | 1019.5 |
| 20260902152418 | 28 | 203 | 17.7 | 24.1 | 0.00 | 0.00 | 0.00 | 44 | 1019.4 |
| 20260902151913 | 28 | 197 | 16.1 | 22.5 | 0.00 | 0.00 | 0.00 | 45 | 1019.1 |
| 20260902151409 | 27 | 200 | 17.7 | 24.1 | 0.00 | 0.00 | 0.00 | 46 | 1019.2 |
| 20260902150903 | 27 | 211 | 16.1 | 25.7 | 0.00 | 0.00 | 0.00 | 47 | 1019.6 |
| 20260902150359 | 27 | 213 | 12.9 | 24.1 | 0.00 | 0.00 | 0.00 | 46 | 1019.1 |
| 20260902145858 | 26 | 216 | 9.7 | 29.0 | 0.00 | 0.00 | 0.00 | 48 | 1019.1 |
| 20260902145354 | 26 | 207 | 16.1 | 22.5 | 0.00 | 0.00 | 0.00 | 49 | 1019.2 |
| 20260902144848 | 25 | 175 | 16.1 | 20.9 | 0.00 | 0.00 | 0.00 | 50 | 1019.5 |
| 20260902144345 | 25 | 180 | 9.7 | 17.7 | 0.00 | 0.00 | 0.00 | 51 | 1019.4 |